• In France
  • List of Countries
  • For 7 days
  • Water Temperature
  • Satellite Maps
  • Weather Map
  • Weather Widgets
  • user-avatar
    Login

    Hourly Weather Sapozhok

    Today, 24 September, Monday

    Time Temperature Precipitation Wind Pressure Humidity
    00:00 +9°C° 0.2 mm 3 mps 745 mmHg 88%
    01:00 +9°C° 0 mm 3 mps 745 mmHg 89%
    02:00 +8°C° 0 mm 3 mps 745 mmHg 90%
    03:00 +8°C° 0 mm 2 mps 745 mmHg 93%
    04:00 +7°C° 0 mm 2 mps 745 mmHg 94%
    05:00 +7°C° 0 mm 2 mps 746 mmHg 94%
    06:00 +7°C° 0 mm 2 mps 746 mmHg 94%
    07:00 +8°C° 0 mm 2 mps 746 mmHg 89%
    08:00 +9°C° 0 mm 2 mps 746 mmHg 83%
    09:00 +11°C° 0 mm 3 mps 746 mmHg 78%
    10:00 +12°C° 0 mm 3 mps 746 mmHg 72%
    11:00 +13°C° 0 mm 3 mps 746 mmHg 65%
    12:00 +15°C° 0 mm 4 mps 746 mmHg 59%
    13:00 +15°C° 0 mm 4 mps 746 mmHg 58%
    14:00 +15°C° 0 mm 4 mps 745 mmHg 57%
    15:00 +15°C° 0 mm 5 mps 745 mmHg 56%
    16:00 +14°C° 0.2 mm 4 mps 744 mmHg 62%
    17:00 +13°C° 0.2 mm 4 mps 744 mmHg 67%
    18:00 +12°C° 0.2 mm 4 mps 743 mmHg 72%
    19:00 +12°C° 0.7 mm 5 mps 743 mmHg 73%
    20:00 +11°C° 0.7 mm 6 mps 742 mmHg 74%
    21:00 +11°C° 0.7 mm 7 mps 741 mmHg 74%
    22:00 +11°C° 1 mm 7 mps 741 mmHg 77%
    23:00 +10°C° 1 mm 8 mps 740 mmHg 80%

    Tomorrow, 25 September, Tuesday

    Time Temperature Precipitation Wind Pressure Humidity
    00:00 +10°C° 1 mm 9 mps 739 mmHg 83%
    01:00 +10°C° 0.5 mm 8 mps 739 mmHg 84%
    02:00 +10°C° 0.5 mm 8 mps 738 mmHg 84%
    03:00 +10°C° 0.5 mm 7 mps 738 mmHg 85%
    04:00 +10°C° 0.5 mm 7 mps 738 mmHg 85%
    05:00 +9°C° 0.5 mm 6 mps 738 mmHg 85%
    06:00 +9°C° 0.5 mm 5 mps 737 mmHg 86%
    07:00 +9°C° 0.2 mm 6 mps 738 mmHg 83%
    08:00 +9°C° 0.2 mm 6 mps 738 mmHg 81%
    09:00 +9°C° 0.2 mm 6 mps 738 mmHg 79%
    10:00 +9°C° 0 mm 6 mps 738 mmHg 76%
    11:00 +9°C° 0 mm 7 mps 739 mmHg 74%
    12:00 +10°C° 0 mm 7 mps 739 mmHg 72%
    13:00 +10°C° 0 mm 7 mps 739 mmHg 71%
    14:00 +10°C° 0 mm 7 mps 740 mmHg 70%
    15:00 +10°C° 0 mm 7 mps 740 mmHg 69%
    16:00 +9°C° 0 mm 7 mps 741 mmHg 70%
    17:00 +9°C° 0 mm 7 mps 741 mmHg 71%
    18:00 +8°C° 0 mm 6 mps 741 mmHg 72%
    19:00 +8°C° 0 mm 6 mps 742 mmHg 73%
    20:00 +7°C° 0 mm 6 mps 742 mmHg 74%
    21:00 +6°C° 0 mm 7 mps 743 mmHg 75%
    22:00 +6°C° 0.1 mm 7 mps 743 mmHg 76%
    23:00 +6°C° 0.1 mm 7 mps 744 mmHg 77%

    Day after tomorrow, 26 September, Wednesday

    Time Temperature Precipitation Wind Pressure Humidity
    00:00 +5°C° 0.1 mm 7 mps 744 mmHg 78%
    01:00 +5°C° 0.2 mm 7 mps 745 mmHg 79%
    02:00 +5°C° 0.2 mm 7 mps 746 mmHg 80%
    03:00 +5°C° 0.2 mm 7 mps 746 mmHg 81%
    04:00 +4°C° 0.3 mm 7 mps 747 mmHg 81%
    05:00 +4°C° 0.3 mm 6 mps 748 mmHg 81%
    06:00 +4°C° 0.3 mm 6 mps 748 mmHg 82%
    07:00 +4°C° 0 mm 6 mps 749 mmHg 79%
    08:00 +4°C° 0 mm 6 mps 750 mmHg 76%
    09:00 +4°C° 0 mm 6 mps 751 mmHg 74%
    10:00 +4°C° 0 mm 6 mps 751 mmHg 70%
    11:00 +5°C° 0 mm 6 mps 752 mmHg 66%
    12:00 +7°C° 0 mm 6 mps 752 mmHg 62%
    13:00 +7°C° 0 mm 5 mps 752 mmHg 58%
    14:00 +8°C° 0 mm 5 mps 753 mmHg 54%
    15:00 +9°C° 0 mm 5 mps 753 mmHg 50%
    16:00 +8°C° 0 mm 4 mps 753 mmHg 52%
    17:00 +7°C° 0 mm 4 mps 753 mmHg 55%
    18:00 +7°C° 0 mm 3 mps 753 mmHg 58%
    19:00 +5°C° 0 mm 3 mps 753 mmHg 60%
    20:00 +4°C° 0 mm 3 mps 753 mmHg 63%
    21:00 +4°C° 0 mm 3 mps 753 mmHg 65%
    22:00 +3°C° 0 mm 3 mps 753 mmHg 66%
    23:00 +3°C° 0 mm 4 mps 752 mmHg 67%

    27 September, Thursday

    Time Temperature Precipitation Wind Pressure Humidity
    00:00 +3°C° 0 mm 4 mps 752 mmHg 67%
    01:00 +3°C° 0 mm 5 mps 751 mmHg 67%
    02:00 +3°C° 0 mm 5 mps 750 mmHg 66%
    03:00 +3°C° 0 mm 6 mps 750 mmHg 65%
    04:00 +3°C° 0.1 mm 6 mps 749 mmHg 67%
    05:00 +4°C° 0.1 mm 7 mps 748 mmHg 68%
    06:00 +4°C° 0.1 mm 7 mps 747 mmHg 69%
    07:00 +4°C° 0.9 mm 8 mps 746 mmHg 72%
    08:00 +3°C° 0.9 mm 9 mps 746 mmHg 75%
    09:00 +3°C° 0.9 mm 9 mps 745 mmHg 78%
    10:00 +3°C° 1.3 mm 9 mps 744 mmHg 80%
    11:00 +3°C° 1.3 mm 9 mps 744 mmHg 82%
    12:00 +5°C° 1.3 mm 9 mps 743 mmHg 83%
    13:00 +5°C° 0.4 mm 8 mps 743 mmHg 83%
    14:00 +6°C° 0.4 mm 8 mps 743 mmHg 82%
    15:00 +8°C° 0.4 mm 7 mps 743 mmHg 81%
    16:00 +8°C° 0.2 mm 6 mps 743 mmHg 81%
    17:00 +8°C° 0.2 mm 6 mps 743 mmHg 80%
    18:00 +8°C° 0.2 mm 5 mps 743 mmHg 80%
    19:00 +7°C° 0.1 mm 5 mps 743 mmHg 83%
    20:00 +7°C° 0.1 mm 5 mps 743 mmHg 86%
    21:00 +7°C° 0.1 mm 5 mps 743 mmHg 88%
    22:00 +7°C° 0.4 mm 5 mps 743 mmHg 89%
    23:00 +7°C° 0.4 mm 5 mps 743 mmHg 89%

    28 September, Friday

    Time Temperature Precipitation Wind Pressure Humidity
    00:00 +7°C° 0.4 mm 5 mps 743 mmHg 90%
    01:00 +6°C° 0.1 mm 5 mps 743 mmHg 90%
    02:00 +6°C° 0.1 mm 5 mps 744 mmHg 90%
    03:00 +5°C° 0.1 mm 5 mps 744 mmHg 89%
    04:00 +5°C° 0 mm 4 mps 744 mmHg 89%
    05:00 +5°C° 0 mm 4 mps 745 mmHg 89%
    06:00 +4°C° 0 mm 4 mps 745 mmHg 89%
    07:00 +5°C° 0 mm 4 mps 745 mmHg 84%
    08:00 +6°C° 0 mm 5 mps 746 mmHg 79%
    09:00 +7°C° 0 mm 5 mps 746 mmHg 74%
    10:00 +9°C° 0 mm 5 mps 746 mmHg 67%
    11:00 +10°C° 0 mm 5 mps 745 mmHg 60%
    12:00 +12°C° 0 mm 5 mps 745 mmHg 54%
    13:00 +12°C° 0.2 mm 5 mps 745 mmHg 60%
    14:00 +12°C° 0.2 mm 5 mps 744 mmHg 67%
    15:00 +12°C° 0.2 mm 5 mps 743 mmHg 73%
    16:00 +11°C° 0.1 mm 6 mps 743 mmHg 76%
    17:00 +11°C° 0.1 mm 7 mps 742 mmHg 79%
    18:00 +12°C° 0.1 mm 8 mps 741 mmHg 82%
    19:00 +12°C° 0.1 mm 8 mps 741 mmHg 82%
    20:00 +12°C° 0.1 mm 8 mps 741 mmHg 82%
    21:00 +12°C° 0.1 mm 9 mps 741 mmHg 82%
    22:00 +12°C° 0.2 mm 8 mps 740 mmHg 82%
    23:00 +12°C° 0.2 mm 8 mps 740 mmHg 83%

    29 September, Saturday

    Time Temperature Precipitation Wind Pressure Humidity
    00:00 +12°C° 0.2 mm 8 mps 740 mmHg 84%
    01:00 +12°C° 0.2 mm 7 mps 740 mmHg 85%
    02:00 +13°C° 0.2 mm 6 mps 741 mmHg 86%
    03:00 +11°C° 0.2 mm 6 mps 741 mmHg 87%
    04:00 +10°C° 0.2 mm 5 mps 742 mmHg 87%
    05:00 +9°C° 0.2 mm 5 mps 743 mmHg 87%
    06:00 +8°C° 0.2 mm 5 mps 743 mmHg 87%
    07:00 +8°C° 0 mm 5 mps 744 mmHg 85%
    08:00 +7°C° 0 mm 4 mps 745 mmHg 83%
    09:00 +6°C° 0 mm 4 mps 746 mmHg 81%
    10:00 +7°C° 0 mm 4 mps 747 mmHg 75%
    11:00 +7°C° 0 mm 4 mps 747 mmHg 68%
    12:00 +9°C° 0 mm 3 mps 748 mmHg 62%
    13:00 +10°C° 0 mm 3 mps 748 mmHg 58%
    14:00 +10°C° 0 mm 3 mps 749 mmHg 54%
    15:00 +11°C° 0 mm 3 mps 749 mmHg 50%
    16:00 +10°C° 0 mm 3 mps 749 mmHg 52%
    17:00 +9°C° 0 mm 3 mps 750 mmHg 53%
    18:00 +8°C° 0 mm 3 mps 750 mmHg 54%
    19:00 +8°C° 0 mm 3 mps 751 mmHg 54%
    20:00 +7°C° 0 mm 3 mps 751 mmHg 54%
    21:00 +7°C° 0 mm 3 mps 752 mmHg 54%
    22:00 +5°C° 0 mm 3 mps 752 mmHg 56%
    23:00 +5°C° 0 mm 3 mps 753 mmHg 58%
    Show more